RADUGA 20 [-]

Last updated on Aug. 12, 2020, 5:32 a.m. UTC

1 17611U 87028A   20224.46940767 -.00000096  00000-0  00000+0 0  9999
2 17611  16.1183 345.0851 0028826 114.1340 253.4648  0.95961800117801
UTC
Height (km)
Latitude
Longitude
Inclination
Orbital Period
UTC large
Height (km)
Speed (km/s)
/
Latitude / Longitude
Inclination (degrees)
Orbital Period (minutes)
Azimuth
Elevation
Range (km)
Doppler Factor
iOS Compass Heading
iOS Angle

Next 30 passes for location: Hong Kong

Rise time Rise Azimuth (degrees) Set time Set Azimuth (degrees) Duration Max altitude (degrees)

No matching passes for this satellites